Casper Hojlund

Chefscout - FC Midtjylland
4 Apr 2028
Dienstag
Verarbeitung

Persönlichkeit

Anpassungsfähigkeit (8) Ehrgeiz (14) Kontroverse (12) Loyalität (20) Druck (19) Professionalität (18) Fairness (3) Temperament (1)

Profil

Trainerstil Demokratisch
Lizenz Kontinentale C
Entschlossenheit 13
Menschenführung 8
Motivation 5
Disziplin 5
Arbeitszufriedenheit
100%
Ermüdung
0%
Rolle Chefscout
Gehalt 17.9K p/W
Vertrag 14.03.2030

Leistung

Verhalten Gut
Trainingseffektivität
49%
Spielerentwicklung
60%
Verletzungsprävention
70%
Taktische Umsetzung
65%

Aktuell beobachtet

108
Spieler Verein Status Fähigkeit Vertrauen Beobachtet Zuletzt beobachtet Letzte Stimme
Thiago Almada River Plate Verloren 139 / 144 40% 1 19.01.2028 -
Miguel Pereira Persebaya Verloren 130 / 106 40% 1 19.01.2028 -
Facundo Torres Austin FC Verloren 151 / 130 40% 1 19.01.2028 -
Duckens Nazon RC Strasbourg Aktiv 115 / 115 67% 1 17.01.2028 Befürworten
Keny Arroyo Cruzeiro Aktiv 135 / 122 40% 1 04.01.2028 -
Luis Sinisterra Cruzeiro Aktiv 149 / 143 40% 1 04.01.2028 -
Heung-Min Son Millonarios Aktiv 151 / 151 68% 1 01.01.2028 Befürworten
Denis Bouanga Nacional Aktiv 134 / 134 67% 1 01.01.2028 Befürworten
Seedy Jatta Sturm Graz Aktiv 118 / 122 67% 1 01.01.2028 Befürworten
Mateo Lizondo Colón Aktiv 98 / 100 40% 2 27.08.2027 -
Mateo Peralta Danubio Aktiv 100 / 120 40% 1 27.08.2027 -
George Paaku Hearts of Oak Aktiv 98 / 94 40% 1 27.08.2027 -
Pablo Suárez Rentistas Aktiv 96 / 112 40% 2 26.08.2027 -
Ian Wisdom Sporting Cristal Aktiv 94 / 110 40% 1 26.08.2027 -
Manuel Kissanga Inter Allies Aktiv 89 / 96 40% 1 26.08.2027 -
Vadim Arutyunyan Dnepr Mogilev Aktiv 92 / 92 40% 1 25.08.2027 -
Musa Malik Ikorodu City Aktiv 93 / 93 40% 1 24.08.2027 -
Afriyie Sulemana Hasaacas Aktiv 104 / 98 40% 1 23.08.2027 -
Teo Rodríguez Pagano San Lorenzo Aktiv 104 / 123 40% 1 23.08.2027 -
Rafael Vargas Cortulua Aktiv 78 / 105 40% 1 23.08.2027 -
Elias Achouri San Diego Football Club Aktiv 136 / 130 40% 1 21.08.2027 -
Imran Oulad Omar Dinamo Batumi Aktiv 129 / 112 40% 1 21.08.2027 -
Dany Mota Monza Aktiv 140 / 143 40% 5 20.08.2027 -
Kian Fitz-Jim Torino Aktiv 144 / 140 40% 1 20.08.2027 -
Leonardo Sernicola Benevento Aktiv 119 / 117 40% 1 20.08.2027 -
Andrea Colpani Monza Aktiv 137 / 141 40% 1 18.08.2027 -
Boulaye Dia Lazio Aktiv 135 / 144 40% 1 18.08.2027 -
Armand Laurienté Sassuolo Aktiv 153 / 142 40% 2 17.08.2027 -
Álex Valle Como Aktiv 136 / 142 40% 1 17.08.2027 -
Tomáš Suslov Hellas Verona Aktiv 136 / 138 40% 1 17.08.2027 -
Idrissa Touré Monza Aktiv 149 / 137 40% 1 16.08.2027 -
Filippo Ranocchia Palermo Aktiv 140 / 137 40% 1 15.08.2027 -
Nicolás Paz San Martín SJ Aktiv 118 / 121 40% 1 15.08.2027 -
Cesare Casadei Torino Aktiv 126 / 140 40% 1 15.08.2027 -
Enrico Delprato Parma Aktiv 133 / 134 40% 1 12.08.2027 -
Samuele Angori Pisa Aktiv 125 / 147 40% 1 12.08.2027 -
Kelvin Flórez Udinese Aktiv 132 / 130 40% 1 11.08.2027 -
Emanuele Adamo Spezia Aktiv 131 / 119 40% 2 10.08.2027 -
Ethan Williams Peterborough United Aktiv 118 / 125 40% 3 09.08.2027 -
Ronald Swansea City Aktiv 135 / 139 40% 2 09.08.2027 -
Max Johnston Derby County Aktiv 133 / 139 40% 1 09.08.2027 -
Alfie Gilchrist West Bromwich Albion Aktiv 121 / 131 40% 1 09.08.2027 -
Brodie Spencer Oxford United Aktiv 136 / 127 40% 1 09.08.2027 -
Myles Peart-Harris Bristol Rovers Aktiv 120 / 130 40% 1 09.08.2027 -
Malik Mothersille Stockport County Aktiv 125 / 113 40% 3 08.08.2027 -
Armando Dobra Chesterfield Aktiv 114 / 109 40% 3 08.08.2027 -
Todd Cantwell Blackburn Rovers Aktiv 143 / 128 40% 3 08.08.2027 -
Jack Rudoni Coventry City Aktiv 128 / 135 40% 2 07.08.2027 -
Isaak Davies Cardiff City Aktiv 118 / 116 40% 3 05.08.2027 -
Sorba Thomas Stoke City Aktiv 125 / 142 40% 3 05.08.2027 -
Saša Lukić Ipswich Town Aktiv 157 / 140 40% 1 05.08.2027 -
Mathias Jørgensen Blackburn Rovers Aktiv 136 / 114 40% 1 04.08.2027 -
Ali Ahmed Norwich City Aktiv 129 / 127 40% 1 04.08.2027 -
Caspar Jander Southampton Aktiv 132 / 135 40% 1 03.08.2027 -
Jesús Vázquez Valencia Aktiv 132 / 138 40% 1 03.08.2027 -
Oladapo Afolayan Blackburn Rovers Aktiv 122 / 117 40% 1 03.08.2027 -
Tyrese Campbell Sheffield United Aktiv 123 / 122 40% 2 02.08.2027 -
Samuel Edozie Southampton Aktiv 123 / 137 40% 2 02.08.2027 -
Koki Saito Queens Park Rangers Aktiv 142 / 135 40% 2 31.07.2027 -
Tyler Goodrham Oxford United Aktiv 130 / 134 40% 1 30.07.2027 -
Florentino Luís Ipswich Town Aktiv 145 / 143 40% 1 27.07.2027 -
Milan van Ewijk Coventry City Aktiv 130 / 137 40% 1 27.07.2027 -
Sidiki Chérif Coventry City Aktiv 121 / 137 40% 1 26.07.2027 -
Joseph Opoku Swansea City Aktiv 115 / 124 40% 1 26.07.2027 -
Aaron Connolly Leyton Orient Aktiv 132 / 116 40% 1 24.07.2027 -
Wilfried Gnonto Leeds United Aktiv 150 / 135 40% 1 24.07.2027 -
Aaron Collins Milton Keynes Dons Aktiv 108 / 113 40% 3 23.07.2027 -
Kieran Dowell Hull City Aktiv 139 / 118 40% 1 22.07.2027 -
Alex Robertson Cardiff City Aktiv 116 / 129 40% 1 22.07.2027 -
Isaiah Jones Luton Town Aktiv 143 / 121 40% 2 21.07.2027 -
Aurèle Amenda Coventry City Aktiv 150 / 139 40% 1 20.07.2027 -
Brooke Norton-Cuffy Genoa Aktiv 143 / 140 40% 1 20.07.2027 -
Tomáš Rigo Stoke City Aktiv 139 / 130 40% 1 17.07.2027 -
Mohamed Belloumi Hull City Aktiv 151 / 147 40% 1 17.07.2027 -
Ar'jany Martha Rotherham United Aktiv 118 / 114 40% 2 16.07.2027 -
Mark Sykes Millwall Aktiv 129 / 132 40% 1 15.07.2027 -
Ryan Wintle Milton Keynes Dons Aktiv 128 / 123 40% 1 15.07.2027 -
Lewis Bate Stockport County Aktiv 118 / 123 40% 1 14.07.2027 -
Sam Bell Bristol City Aktiv 119 / 123 40% 2 11.07.2027 -
Ollie O'Neill Leyton Orient Aktiv 107 / 122 40% 1 11.07.2027 -
Patrick Maswanganyi Orlando Pirates Aktiv 110 / 120 40% 1 10.07.2027 -
Ben Wiles Milton Keynes Dons Aktiv 118 / 110 40% 1 10.07.2027 -
Luca Connell Barnsley Aktiv 113 / 107 40% 1 09.07.2027 -
Alex Lowry Wycombe Wanderers Aktiv 133 / 126 40% 1 08.07.2027 -
Kanya Fujimoto Birmingham Aktiv 123 / 125 40% 2 29.06.2027 -
Stiven Shpendi Empoli Aktiv 114 / 130 40% 1 29.06.2027 -
Rúben Rodrigues Bolton Wanderers Aktiv 129 / 111 40% 1 28.06.2027 -
Fred Onyedinma Bradford City Aktiv 124 / 125 40% 1 27.06.2027 -
Christian Saydee Wigan Athletic Aktiv 120 / 109 40% 1 23.06.2027 -
Sergio Rodelas Granada Aktiv 128 / 124 40% 1 23.06.2027 -
Gabriel Strefezza Palermo Aktiv 142 / 132 40% 1 21.06.2027 -
Dylan Levitt Leyton Orient Aktiv 117 / 112 40% 1 21.06.2027 -
Salah Mohsen El Masry Aktiv 128 / 109 40% 1 19.06.2027 -
Sipho Mbule Asante Kotoko Aktiv 123 / 111 40% 1 17.06.2027 -
Mathias Kvistgaarden Norwich City Aktiv 107 / 119 40% 1 15.06.2027 -
Chem Campbell Stevenage Aktiv 115 / 110 40% 1 06.06.2027 -
Sonny Carey Charlton Athletic Aktiv 111 / 117 40% 1 06.06.2027 -
Edoardo Soleri Sampdoria Aktiv 133 / 123 40% 1 02.06.2027 -
Soufiane Benjdida Malmo FF Aktiv 121 / 122 68% 1 01.06.2027 Befürworten
Alexander Lyng SonderjyskE Aktiv 109 / 123 40% 1 24.08.2026 -
Donavan Phillip Colorado Rapids Aktiv 103 / 100 40% 1 21.08.2026 -
Ezekiel Kwame Alladoh Philadelphia Union Aktiv 127 / 123 40% 1 20.08.2026 -
Mikkel Kallesøe Aalborg Aktiv 99 / 99 58% 1 17.08.2026 -
Youssoufa Moukoko FC Copenhagen Aktiv 113 / 121 40% 1 17.08.2026 -
Marco Bruhn Hobro Aktiv 78 / 100 40% 1 14.08.2026 -
Lévy Néne FC Nordsjaelland Aktiv 116 / 116 40% 1 11.08.2026 -
Justin-Noël Kalumba Mallorca Aktiv 115 / 112 40% 1 03.08.2026 -
Thapelo Maseko FC Copenhagen Aktiv 116 / 124 40% 1 01.08.2026 -